Regional Weather Roundup
Issued by NWS Sterling, VA

Home | Current Version | Previous Version | Text Only | Print | Product List | Glossary Off
Versions: 1 2 3 4 5 6 7 8 9 10 11 12 13 14 15 16 17 18 19 20 21 22 23 24 25 26 27 28 29 30 31 32 33 34 35 36 37 38 39 40 41 42 43 44 45 46 47 48 49

000
ASUS41 KLWX 191310
RWRLWX

REGIONAL WEATHER ROUNDUP
NATIONAL WEATHER SERVICE BALTIMORE MD/WASHINGTON DC
800 AM EST FRI DEC 19 2014

Note: "FAIR" indicates few or no clouds below 12,000 feet
with no significant weather and/or obstructions to visibility.
 TC=TEMPERATURE CELSIUS

 * =Non NWS site. Station does not report precipitation (e.g. rain,
    snow, etc.), thunder, or fog.

DCZ001-MDZ009-015-VAZ040>042-051-053>054-191400-
WASHINGTON METRO

CITY           SKY/WX    TMP DP  RH WIND       PRES   REMARKS
WASHINGTON NAT MOCLDY    38  21  50 NW12      30.16R
DULLES         MOCLDY    33  21  61 NW14      30.16R WCI  23
ANDREWS AFB    CLOUDY    35  22  60 NW12      30.14R WCI  26
FT BELVOIR     CLOUDY    35  22  57 NW13      30.17R WCI  27
QUANTICO       PTCLDY    35  21  56 N8        30.18R WCI  29
COLLEGE PARK*  CLOUDY    36  25  64 NW7       30.15R
LEESBURG*      CLOUDY    34  27  75 NW8       30.16R WCI  27
MANASSAS*      CLOUDY    36  25  64 NW10      30.18R WCI  28
GAITHERSBURG*  CLOUDY    34  21  60 NW6       30.17R

$$

MDZ006>007-011-014-191400-
BALTIMORE METRO

CITY           SKY/WX    TMP DP  RH WIND       PRES   REMARKS
BWI AIRPORT    CLOUDY    34  24  67 W7        30.13R
MD SCIENCE CTR   N/A     36  23  59 MISG      30.14R
ANNAPOLIS      CLOUDY    36  24  62 NW6       30.14R
FORT MEADE*    CLOUDY    34  27  75 W6        30.16R

$$

MDZ012-015-019>023-191400-
MARYLAND EASTERN SHORE

CITY           SKY/WX    TMP DP  RH WIND       PRES   REMARKS
OCEAN CITY     CLOUDY    35  26  69 NW6       30.12R
SALISBURY      CLOUDY    36  25  64 W7        30.13R
BAY BRIDGE AP*   N/A     36  25  64 NW10      30.14R WCI  28
CAMBRIDGE*     CLOUDY    37  27  65 NW10G17   30.13R
EASTON*        CLOUDY    37  28  70 NW9       30.16R

$$

MDZ017>025-191400-
SOUTHERN MARYLAND

CITY           SKY/WX    TMP DP  RH WIND       PRES   REMARKS
PATUXENT RIVER MOCLDY    35  22  58 W10       30.15R WCI  27
ST INIGOES     MOCLDY    35  21  56 NW7       30.15R
LEONARDTOWN*   CLOUDY    34  23  64 W7        30.16S

$$

MDZ003>005-191400-
NORTH CENTRAL MARYLAND

CITY           SKY/WX    TMP DP  RH WIND       PRES   REMARKS
FREDERICK*     CLOUDY    36  21  55 NW10G16   30.16R WCI  28
HAGERSTOWN APT CLOUDY    33  23  66 NW10      30.13R WCI  25
WESTMINSTER*   CLOUDY    32  25  74 NW7       30.10R

$$

MDZ501>502-191400-
WESTERN MARYLAND

CITY           SKY/WX    TMP DP  RH WIND       PRES   REMARKS
OAKLAND*       CLOUDY    21 N/A N/A W7        30.07R HAZE
CUMBERLAND*    NOT AVBL

$$

VAZ025>031-191400-
SHENANDOAH VALLEY

CITY           SKY/WX    TMP DP  RH WIND       PRES   REMARKS
WINCHESTER*    CLOUDY    34  19  55 NW13G20   30.16R WCI  25
FRONT ROYAL*   PTSUNNY   32  23  69 NW7       30.16R
LURAY*         FAIR      28  27  93 CALM      30.15R
NEW MARKET*    FAIR      23  21  91 CALM      30.15R
STAUNTON*      CLEAR     25  21  84 CALM      30.14F
WAYNESBORO*    FAIR      26  22  85 CALM      30.11S

$$

WVZ021-048>050-054>055-191400-
EASTERN WEST VIRGINIA PANHANDLE

CITY           SKY/WX    TMP DP  RH WIND       PRES   REMARKS
MARTINSBURG    CLOUDY    34  20  56 NW17      30.15R WCI  23
PETERSBURG*    CLOUDY    28  23  79 CALM      30.19R

$$

VAZ036>039-050-191400-
CENTRAL FOOTHILLS

CITY           SKY/WX    TMP DP  RH WIND       PRES   REMARKS
CHARLOTTESVILL CLEAR     26  21  81 CALM      30.14R
CULPEPER*      CLEAR     27  25  93 CALM      30.16R
ORANGE*        CLEAR     27  27 100 CALM      30.16S
GORDONSVILLE*  FAIR      24  22  92 MISG      30.15R
WARRENTON*     FAIR      33  28  81 N6        30.15S

$$

VAZ055>057-191400-
NORTH AND CENTRAL PIEDMONT

CITY           SKY/WX    TMP DP  RH WIND       PRES   REMARKS
FREDERICKSBRG* PTCLDY    31  25  80 CALM      30.16S
STAFFORD*      PTCLDY    32  21  65 N5        30.21R

$$

NCZ024-NYZ072-PAZ021-071-VAZ022-071-191400-
OTHER REGIONAL OBSERVATIONS

CITY           SKY/WX    TMP DP  RH WIND       PRES   REMARKS
NEW YORK CITY  CLOUDY    36  21  54 NW12G18   30.04R WCI  28
PHILADELPHIA   CLOUDY    37  25  61 W10       30.08R
PITTSBURGH     FRZ DRZL  28  26  92 W7        30.18R FOG
ROANOKE        PTCLDY    32  20  61 N7        30.17R
RICHMOND       PTCLDY    32  23  69 NW5       30.16R
RALEIGH        PTCLDY    38  24  57 CALM      30.16R

$$

ANZ530>537-191400-
MARINE OBSERVATIONS

STATION/POSITION TIME  TEMP    WIND        PRES
                       AIR SEA DIR/SP/G
                 (UTC) (F)     (DEG/KT/KT) (MB)
THOMAS PT LIGHT  1300   35 41  300/ 10/ 12 1021.8R
BALT KEY BRIDGE  1300   36     270/ 11/ 15 1020.2R
COVE POINT       1300   34     310/  8/ 11 1020.7R
LEWISETTA        1300   36 41  340/ 10/ 16 1020.7F
SOLOMONS ISLAND  1300      43                N/A
PINEY POINT      1300          360/ 17/ 21   N/A

$$



USA.gov is the U.S. government's official web portal to all federal, state and local government web resources and services.